Location: Nordegg
(52.4712°N, 116.0743°W)
Time: 08:23:58
(UTC+00:00)

Envisat - Pass Details

Date: 01 December 2021
Orbit: 764 x 766 km, 98.2° (Epoch: 25 January)

Event Time Altitude Azimuth Distance (km) Brightness Sun altitude
Rises 12:22:20 0° 18° (NNE) 3,248 6.5 -27.9°
Reaches altitude 10° 12:24:46 10° 25° (NNE) 2,317 5.7 -27.5°
Maximum altitude 12:29:39 45° 98° (E) 1,046 4.0 -26.8°
Drops below altitude 10° 12:34:30 10° 171° (S) 2,299 5.6 -26.1°
Sets 12:36:54 0° 177° (S) 3,220 6.3 -25.7°
